DELTA 1 DEB, 10747

Orbit data source: Space-Track

DELTA 1 DEB, 10747 is space debris in SSO originally from a launch on Thu, 29 Jul 1976 UTC launched from the Air Force Western Test Range (AFWTR). Debris objects in space refer to the collection of defunct objects orbiting the Earth. Examples of debris include non-operational satellites, rocket bodies, and fragments generated from explosions, collisions, or faulty payload assembly.

Loading next visibility...
Identifier
10747, 1976-077AU
Orbit
SSO
Country
Flag of USUS
Related business
Manufacturer
Unknown
Mission
Spacecraft
Bus & Motor
Unknown
Mass
Unknown
Launch date (UTC)
1976-07-29 (50 years ago)
Launch vehicle
Unknown
Launch site
Air Force Western Test Range (AFWTR)
Object type
Payload
Rocket body
Debris
Shape & HBR
Unknown shape, 0.1 m
Radar Cross Section
Small (<0.1 m²)

Expand to show TLE details & history
Last TLE update: 8 hours ago

TLE from 8 hours ago
0 DELTA 1 DEB
1 10747U 76077AU  26118.89220707  .00003807  00000-0  45854-2 0  9995
2 10747 101.0925 104.8923 0138590 155.6420 278.7455 13.63448223401611
Epoch: 2026-04-28T21:24Z
TLE epoch observation values (Epoch: 2026-04-28T21:24:46.690Z)
Latitude
69.71552°
Longitude
-105.01388°
Altitude
1,020.909 km
Speed
7.355 km/s
True Right ascension
04h 52m 10s
True Declination
69° 36' 27"
Sunlit
Object was in daylight at epoch
Visualization orbit readout
Latitude
Unknown
Longitude
Unknown
Altitude
Unknown
Speed
Unknown
Apparent Right ascension
Unknown
Apparent Declination
Unknown
Sunlit
N/A
Visualization observer readout
Local Sidereal Time
13:01:23
Azimuth
Unknown
Elevation
Unknown
Doppler factor
Unknown
Orbital elements
Apogee altitude
1,123.085 km
Perigee altitude
918.008 km
Semi-major axis
7,398.683 km
Eccentricity
0.01386
Inclination
101.0925°
RAAN
104.8923°
Arg. of periapsis
155.642°
True anomaly
277.17189°
Mean anomaly
278.7455°
Eccentric anomaly
277.95909°
Mean motion
3.41045 °/min
Orbital period
105.56 mins
BSTAR
0.0045854
Loading maneuver chart data...
Computing Atmospheric mass density...
Loading historical data...
Loading historical data...
Loading historical data...
Loading historical data...
Loading historical data...
Loading historical data...
Loading historical data...

Documentation

Showing up to 5 results
|